GFSNW_250_rhum_114.txt.gz
RH
24 23 26 55 46 49 43 38 40 38 36 36 43 54 61 74 72 65 73 73 71 62 58 48 47 44 43 42 41 38 37 35 35 34 32 33 34 35 36 36 38 38 38 38
30 28 22 25 46 55 52 45 38 34 40 40 42 38 40 48 50 57 62 65 66 62 63 60 56 52 53 51 49 50 49 44 43 46 48 46 40 37 31 28 29 32 36 36
38 29 36 28 25 38 42 54 51 43 34 36 42 44 42 37 35 36 39 42 46 50 54 60 63 60 58 59 62 62 62 64 63 60 51 48 51 54 51 45 40 41 35 34
41 36 34 45 37 30 34 28 44 48 46 36 33 43 43 40 38 36 31 30 33 34 38 43 46 54 57 54 52 54 56 60 62 61 60 60 62 60 58 53 51 50 54 58
74 50 45 53 39 43 41 37 36 40 43 43 46 39 32 30 30 34 41 41 36 33 34 36 35 38 41 40 52 55 48 43 46 51 49 46 47 58 60 60 61 66 62 58
100 83 61 60 59 37 52 39 54 50 46 47 52 60 47 41 38 36 33 32 37 37 36 39 39 38 34 32 30 33 34 37 38 34 33 37 38 41 40 39 38 41 45 48
72 100 95 92 72 62 41 73 47 49 45 74 69 63 90 64 52 51 50 47 42 35 30 29 33 35 38 37 37 37 38 35 30 35 32 32 33 33 32 34 36 34 34 34
81 100 100 100 100 64 76 57 84 58 50 62 79 75 74 100 83 73 69 67 60 52 38 42 36 34 35 39 40 36 36 34 33 36 38 40 40 41 44 46 54 63 57 49
97 86 91 76 100 62 77 95 85 100 93 82 100 61 55 82 100 69 68 93 86 81 65 62 58 62 74 50 37 51 50 44 45 44 34 46 45 55 63 68 60 70 71 70
98 78 88 99 99 100 63 71 82 65 98 100 93 100 90 76 75 100 95 98 88 95 100 69 93 84 88 75 60 77 55 74 54 55 54 43 42 50 60 61 73 73 73 66
100 100 100 100 100 100 100 97 91 82 82 78 54 96 100 100 67 67 99 100 80 98 100 62 93 100 84 92 68 69 76 91 95 94 78 71 72 65 69 74 81 86 74 75
100 100 100 100 100 100 100 100 100 100 100 100 97 88 73 69 100 99 65 99 100 100 100 100 61 100 100 100 100 93 50 95 100 99 93 93 86 92 96 91 80 82 86 94
100 100 100 100 100 100 100 100 100 100 100 100 100 100 100 93 66 64 74 69 90 100 100 100 100 96 100 100 100 100 100 97 99 100 99 100 100 100 100 100 100 100 94 89
94 100 100 100 100 100 100 98 96 99 90 73 78 94 100 100 100 100 100 99 100 100 99 73 97 100 100 63 100 100 68 100 100 100 100 100 100 100 100 100 100 100 100 100
89 78 98 100 100 100 100 100 100 100 100 84 66 85 64 66 90 100 100 100 100 100 100 99 100 100 100 99 84 83 74 89 84 95 100 100 97 98 88 92 96 87 99 100
100 85 81 97 100 100 100 100 100 100 100 100 100 81 68 68 68 68 76 72 78 84 100 100 100 100 100 100 100 100 100 100 100 100 100 100 100 100 98 95 88 91 98 92
99 100 100 97 100 96 94 96 100 100 100 93 99 100 100 91 85 61 49 58 54 54 60 64 71 75 97 100 100 100 100 100 100 100 100 100 100 99 100 100 100 95 89 88
95 87 98 92 73 86 100 77 80 96 100 100 91 84 100 96 99 95 81 67 61 61 54 56 58 51 54 57 62 66 85 100 100 100 100 100 100 100 100 100 91 100 100 89
93 82 67 82 70 64 64 70 49 67 92 94 94 100 100 100 100 100 98 95 84 68 65 68 69 69 77 61 66 76 61 52 58 68 78 88 93 94 96 94 87 78 78 73
100 100 86 84 70 56 48 70 57 44 35 87 86 78 84 79 70 78 99 100 100 100 100 70 64 86 100 97 64 61 67 71 58 41 46 56 62 65 61 54 54 50 46 51
100 100 98 100 100 89 78 74 65 50 53 54 66 67 76 84 73 60 58 57 59 67 87 84 68 76 100 82 53 50 53 50 48 61 60 49 42 38 41 42 43 48 47 45
87 100 100 100 100 87 92 100 100 100 90 100 100 94 72 70 64 75 78 52 48 74 82 76 66 96 100 75 74 77 86 64 60 51 43 43 41 44 41 49 68 71 81 71
100 100 94 85 80 77 69 84 99 96 76 63 66 73 77 82 77 50 42 34 29 32 40 51 94 100 71 76 92 89 85 76 78 66 56 52 52 54 58 44 57 75 62 60
94 74 74 96 98 95 92 86 67 77 87 82 80 67 60 76 82 84 73 64 52 44 56 82 100 93 100 100 100 100 100 94 68 52 54 52 42 39 48 50 44 47 48 63
66 72 79 81 82 92 100 94 92 81 80 70 55 60 65 62 70 65 56 67 50 62 91 98 89 78 96 96 82 54 26 23 35 28 32 31 32 32 32 38 35 39 52 69
78 76 77 91 90 80 78 92 88 97 85 66 66 62 63 64 62 53 52 30 37 76 77 68 65 49 47 33 20 13 16 12 14 16 21 19 19 22 26 29 36 44 47 51
60 61 82 99 99 100 99 100 100 75 61 76 51 42 42 36 25 27 36 46 53 61 45 26 23 21 11 8 13 14 12 13 14 17 17 14 14 17 20 23 36 37 40 38

GFSNW_250_rhum_120.txt.gz
RH
43 40 33 32 41 45 44 37 32 25 22 22 22 23 30 36 36 39 45 48 49 50 51 51 51 50 49 50 50 50 49 47 43 36 38 41 44 42 38 37 36 35 37 38
60 49 43 42 35 44 48 49 46 36 34 24 23 21 22 26 26 26 30 29 30 30 32 37 39 39 40 38 41 47 50 52 52 54 54 53 53 53 57 59 59 55 52 53
82 67 56 58 46 42 47 51 57 57 51 43 25 32 28 23 24 26 23 22 24 26 25 25 27 28 33 33 34 37 38 39 42 42 47 54 58 64 64 67 67 74 82 71
90 91 91 71 74 62 49 50 63 63 64 61 44 34 26 41 35 39 35 38 39 33 35 36 28 26 26 32 37 46 53 49 47 46 46 45 42 59 56 55 54 51 70 74
80 80 82 84 78 81 69 54 68 64 58 77 78 52 33 26 33 29 43 49 50 33 41 37 45 41 35 28 24 22 23 28 46 43 40 61 62 67 64 75 61 48 44 50
70 92 86 67 50 87 83 84 63 65 70 59 65 79 62 44 28 28 24 30 33 48 54 34 39 61 44 45 52 49 36 37 36 33 43 43 65 65 60 61 72 64 57 52
69 89 61 96 74 51 68 67 94 89 91 73 70 58 70 61 48 37 32 26 31 49 24 32 26 44 56 70 48 50 38 44 38 44 44 40 35 52 63 73 72 72 70 64
74 63 87 75 100 72 50 93 84 85 93 69 80 89 79 85 78 60 69 51 46 35 39 44 54 53 36 45 73 55 57 54 44 45 55 62 65 62 68 74 78 81 91 95
100 96 83 74 100 100 100 62 96 100 98 100 99 84 96 98 94 100 85 80 59 60 58 38 43 48 58 54 65 80 67 61 75 54 75 79 61 93 100 100 100 100 100 100
100 100 86 78 83 84 100 99 98 80 99 100 100 100 100 97 92 100 100 100 100 100 85 80 85 75 91 96 100 86 76 90 100 100 87 76 97 100 100 100 100 100 100 100
99 93 100 100 100 100 100 100 84 95 92 100 100 100 100 100 100 100 94 99 99 100 100 100 100 92 100 100 100 100 100 100 100 98 100 100 100 100 100 100 96 93 89 81
100 100 100 100 100 100 85 92 100 100 100 100 100 100 100 100 95 76 59 64 75 64 65 66 88 100 100 92 89 70 68 97 100 100 100 98 98 100 99 95 90 82 68 62
100 100 100 100 100 100 95 92 98 79 97 100 100 100 95 98 100 100 93 76 85 80 64 50 47 45 55 56 61 60 48 52 65 70 60 87 82 80 67 69 73 76 76 77
76 63 94 100 100 100 100 100 95 89 85 77 72 80 83 96 97 100 100 98 93 97 100 100 98 92 84 76 90 84 77 73 63 60 49 66 86 73 94 100 96 90 90 78
100 74 98 100 100 100 100 100 100 100 100 100 100 100 96 100 100 100 100 100 100 100 100 100 100 100 100 100 100 100 97 72 69 71 68 79 100 90 91 94 91 90 93 78
100 100 84 88 100 100 100 100 100 100 100 86 100 100 100 100 100 100 99 90 98 100 100 100 100 100 100 92 94 90 70 77 85 89 93 97 100 100 92 82 74 74 72 77
100 100 100 95 77 100 100 100 100 100 100 100 100 100 100 100 100 100 100 100 90 68 84 100 100 100 93 100 100 86 80 71 63 70 82 100 99 88 75 70 70 60 58 60
100 100 86 98 100 100 100 100 100 100 100 100 100 100 100 100 100 100 100 100 100 100 100 100 100 100 100 97 86 90 91 65 68 75 78 72 65 60 63 67 58 54 61 59
100 100 88 100 100 72 94 100 100 90 100 100 94 100 100 100 100 100 100 100 100 100 100 100 100 100 100 90 90 80 76 64 73 79 76 66 56 68 62 69 60 82 84 98
88 72 99 100 100 100 100 100 100 100 100 100 100 100 100 100 100 100 100 100 100 100 100 100 90 82 94 100 100 99 100 100 93 100 100 89 63 55 64 64 59 68 90 85
84 93 82 88 95 99 100 100 100 100 100 100 100 100 100 100 100 100 100 100 100 100 100 100 100 99 99 100 100 99 85 77 69 64 48 47 56 55 56 55 64 79 79 86
85 97 96 92 75 85 100 99 78 95 98 100 100 91 100 100 97 94 92 100 100 100 100 100 100 100 100 100 100 100 88 73 56 53 68 67 52 49 61 73 68 72 68 68
98 100 100 100 94 99 84 95 83 98 82 98 98 77 85 100 100 100 97 77 89 100 100 100 100 100 100 100 100 100 88 66 87 86 82 77 69 74 82 84 72 75 46 35
97 99 99 87 69 81 96 82 46 56 85 83 72 77 97 76 68 84 92 76 74 82 90 100 100 100 100 100 84 75 81 85 87 86 76 87 96 94 79 68 34 24 20 20
36 35 45 53 65 67 45 54 34 28 40 76 97 98 89 72 69 68 70 68 89 100 100 100 100 100 83 79 76 61 55 57 62 76 67 82 75 48 51 33 20 15 12 9
19 15 18 25 26 23 22 24 27 24 25 28 38 49 50 45 42 40 60 71 74 98 94 71 63 64 52 48 44 49 50 48 60 55 61 28 18 21 20 14 12 8 7 8
14 16 16 16 18 23 22 19 19 21 22 24 25 23 21 19 19 28 40 53 36 30 22 22 25 21 20 22 21 24 24 24 19 17 17 14 14 11 9 8 8 7 7 6

GFSNW_250_rhum_126.txt.gz
RH
63 66 66 61 48 59 48 37 37 28 27 27 29 31 37 38 41 45 46 44 42 39 37 34 32 31 31 32 33 38 41 42 46 51 53 54 49 39 38 39 44 48 48 53
47 55 62 65 66 57 49 50 47 40 33 26 23 26 29 28 26 33 39 40 42 44 45 48 48 47 47 48 49 50 48 49 47 38 37 41 43 46 50 54 58 62 60 48
50 46 45 60 58 68 62 51 52 55 39 35 30 29 28 26 25 24 24 23 24 26 31 29 37 40 35 34 34 32 34 35 34 35 38 37 45 46 45 44 42 44 48 46
43 49 46 49 60 67 64 56 69 52 50 46 44 38 35 33 30 31 30 27 23 21 22 20 22 22 24 24 24 26 29 32 29 22 20 25 24 23 29 32 32 43 44 59
70 51 45 43 40 41 77 81 58 60 67 74 57 55 54 45 45 43 39 38 35 34 36 36 37 35 32 31 30 34 29 36 37 32 38 39 41 41 34 34 40 58 66 79
90 84 65 59 52 44 34 52 93 92 65 76 90 65 63 68 63 57 59 60 56 49 42 44 46 52 57 53 43 41 50 57 71 63 62 63 55 61 49 65 82 92 91 99
40 49 80 83 76 73 62 36 35 73 100 94 76 92 78 56 62 67 74 76 80 74 66 62 58 66 64 60 58 49 56 52 74 51 36 59 90 77 74 74 89 92 88 74
70 60 51 89 88 95 78 78 68 62 68 100 96 50 100 99 89 84 86 83 82 80 91 84 84 78 78 79 45 36 36 40 38 44 42 37 73 58 74 59 74 64 44 48
38 56 56 62 100 100 97 97 96 88 98 80 100 100 66 90 93 100 100 98 87 88 98 86 78 68 60 71 58 50 50 70 73 70 59 54 44 68 80 88 95 56 46 54
60 39 45 42 52 89 100 100 70 44 50 57 91 100 100 87 78 100 100 100 92 88 69 57 62 56 66 67 78 88 91 91 94 100 87 61 57 97 98 95 100 67 71 90
50 59 61 53 48 42 48 70 99 72 100 96 99 99 100 100 86 95 100 100 100 87 92 88 82 76 67 57 54 54 52 64 94 100 93 91 100 100 100 100 90 75 99 95
76 63 70 70 68 62 54 62 83 100 100 100 74 66 75 63 100 100 100 100 100 100 94 100 100 100 87 71 91 79 72 72 96 99 98 76 100 100 99 64 71 100 99 92
100 82 74 77 74 83 86 73 72 74 100 83 88 100 100 94 84 63 52 96 100 100 100 100 100 83 67 90 100 100 100 100 100 76 80 60 86 98 73 77 99 93 92 100
81 100 100 100 97 100 100 100 100 98 89 100 100 88 89 82 91 100 99 68 58 69 86 90 100 100 100 95 96 100 100 100 100 100 100 99 80 73 78 98 95 100 100 100
96 100 100 100 100 100 100 100 100 100 100 100 100 100 100 100 98 98 100 100 87 98 95 75 100 100 100 100 100 100 100 100 99 100 100 100 100 90 71 100 100 100 100 100
100 100 100 100 100 100 100 100 100 100 100 100 100 100 100 100 100 100 100 100 100 100 99 100 100 88 79 79 100 100 100 100 100 100 79 90 100 100 99 99 100 100 100 99
100 100 100 100 100 100 100 100 100 98 100 100 100 100 100 100 100 100 100 100 93 100 100 100 100 100 100 100 100 100 100 100 100 100 100 100 100 100 100 100 100 100 100 100
100 98 100 100 100 100 100 100 100 100 100 100 100 100 100 100 100 100 100 100 100 100 100 100 100 100 100 100 100 100 100 100 100 87 81 96 100 100 100 100 100 100 97 96
100 99 98 100 100 100 100 94 100 100 100 100 95 100 100 100 100 85 86 88 100 100 100 97 100 100 100 100 100 100 100 99 99 100 100 96 96 92 96 75 77 100 100 100
100 100 100 100 100 100 100 100 100 99 100 100 100 96 100 100 100 99 75 83 100 100 100 100 100 100 100 100 100 99 95 93 100 100 100 100 100 100 100 100 87 88 99 99
100 100 100 99 96 79 79 90 100 100 100 99 98 85 83 96 100 100 100 89 68 91 92 95 84 82 100 100 88 78 70 57 62 80 78 74 81 86 79 75 65 67 70 63
82 87 80 97 97 81 92 97 99 100 100 100 98 97 100 96 73 66 81 92 82 85 82 97 99 100 100 97 78 74 69 59 56 55 53 61 65 58 51 45 39 41 39 36
68 84 95 100 86 85 69 75 100 100 100 98 88 85 82 77 84 89 100 100 100 100 100 100 100 100 89 77 62 63 67 62 50 49 47 39 34 35 31 25 24 22 20 18
83 73 64 94 80 76 94 89 76 69 74 73 75 79 73 75 73 78 90 86 78 86 100 98 80 77 85 82 60 44 44 42 44 39 30 26 23 23 21 16 18 18 17 16
68 61 58 74 79 79 73 71 87 86 76 70 69 62 62 68 66 74 75 73 73 60 74 40 31 38 38 36 31 32 28 24 24 19 18 16 16 15 13 16 16 15 14 13
42 38 45 64 71 76 75 80 78 64 48 46 49 47 49 52 49 40 40 43 34 34 24 19 17 18 16 16 22 23 17 16 17 16 16 14 13 12 12 13 13 12 12 12
40 53 75 77 74 77 73 76 65 46 34 32 31 30 35 31 28 30 25 24 20 19 18 15 14 13 14 15 15 16 15 15 14 14 12 12 11 10 10 10 9 8 8 8

GFSNW_250_rhum_129.txt.gz
RH
51 44 50 53 56 54 38 35 32 35 29 27 26 25 27 32 32 31 32 30 27 25 23 22 24 25 26 28 29 30 32 34 40 52 51 51 48 47 49 51 48 32 28 38
43 46 51 53 51 48 57 42 39 36 36 34 31 28 27 25 24 24 32 37 36 33 32 30 29 29 30 31 35 39 45 47 46 39 41 42 42 42 35 26 25 25 28 37
41 43 40 51 54 48 56 56 52 41 44 42 40 36 35 32 32 34 31 27 25 26 27 31 30 30 29 32 39 38 34 34 31 28 28 28 26 23 25 28 30 39 52 60
52 54 47 37 47 60 44 60 67 61 54 45 48 47 50 46 42 39 39 38 33 32 35 29 29 28 31 32 36 28 35 37 38 36 48 40 40 42 43 40 44 64 79 83
50 72 64 67 53 36 45 38 48 71 84 72 58 46 54 52 56 52 52 51 50 48 56 56 53 44 43 44 40 44 48 68 58 53 56 69 60 63 60 62 71 71 71 67
38 29 51 59 84 71 44 41 42 50 55 65 88 85 77 72 60 63 63 54 53 70 67 72 66 52 42 46 39 34 38 57 61 56 43 43 66 91 81 62 64 78 74 71
62 50 51 30 38 79 88 64 51 63 67 79 80 72 91 91 99 100 82 78 60 54 81 79 78 81 72 66 63 51 49 51 60 65 68 62 58 62 60 66 67 72 68 50
36 47 50 58 36 62 94 95 90 45 54 53 64 98 100 87 76 83 100 98 98 80 58 66 64 63 63 63 71 67 68 71 84 84 83 65 68 67 86 69 68 100 82 50
82 48 45 37 39 34 37 88 98 83 60 44 33 47 80 98 100 100 78 94 100 100 99 72 57 63 58 51 37 51 53 59 75 45 40 50 68 79 74 64 64 65 56 66
84 80 74 39 35 38 42 32 36 39 94 86 53 63 69 77 100 100 100 87 59 88 98 100 97 85 81 72 70 51 38 38 51 64 78 77 70 98 99 65 57 45 55 62
100 100 77 90 63 47 41 44 49 48 47 58 60 88 87 77 84 100 98 98 96 100 100 100 100 100 100 100 100 100 95 89 66 62 66 87 99 100 100 100 100 100 95 71
100 100 100 94 78 85 77 76 69 62 68 66 64 97 99 99 100 100 100 100 99 100 100 100 93 70 69 38 59 54 75 100 100 100 99 92 68 81 94 96 100 100 100 100
100 100 100 100 100 100 99 95 87 79 75 87 94 82 92 87 100 100 100 100 91 67 53 71 100 100 94 97 83 97 64 50 51 100 100 100 100 100 74 46 100 100 100 100
100 100 100 100 100 100 100 100 100 100 100 98 91 97 100 98 92 100 100 98 86 98 83 100 100 77 70 99 99 100 100 96 88 71 78 72 49 62 90 82 80 100 100 100
100 100 100 100 100 100 100 100 100 100 100 100 100 100 100 100 100 97 100 100 100 100 100 100 100 100 92 98 100 100 100 100 100 100 100 100 100 100 100 100 100 100 100 100
100 100 100 100 100 100 100 100 100 100 100 100 100 100 100 100 100 100 100 100 100 100 100 100 100 100 100 91 100 100 100 100 97 90 100 100 100 100 100 100 100 100 97 96
100 100 100 100 100 100 100 100 100 100 100 100 100 100 100 100 100 100 100 100 100 100 100 100 100 100 100 100 90 93 100 100 100 100 100 100 100 100 99 98 98 95 94 100
100 100 100 100 100 100 99 97 99 100 100 100 100 100 100 100 100 100 100 100 100 98 100 100 90 88 100 100 100 97 74 79 89 89 88 87 77 80 93 99 100 99 93 93
100 100 100 100 97 100 100 100 94 100 100 100 100 100 100 100 100 100 100 100 100 100 100 100 100 96 90 100 100 100 100 96 93 87 84 89 100 100 97 95 96 89 80 70
100 100 100 100 100 100 100 100 100 100 100 100 100 100 97 96 100 100 100 100 100 100 100 100 98 100 99 90 83 78 78 81 88 94 80 76 77 80 85 79 67 54 47 43
93 100 100 100 100 100 100 100 100 100 100 100 100 100 100 100 100 100 100 93 84 89 100 100 100 100 100 96 80 64 63 63 65 68 67 64 68 70 64 55 42 35 32 30
100 100 100 96 100 95 90 75 95 100 100 100 100 100 100 100 100 100 100 100 95 85 94 100 100 100 98 90 88 81 75 74 76 90 94 76 70 55 43 43 35 28 26 24
72 84 71 64 72 77 70 67 77 86 91 92 97 100 100 99 98 100 100 100 100 88 77 88 100 87 81 73 78 78 72 76 86 86 70 64 64 50 31 21 18 16 15 14
60 67 75 78 72 65 59 63 65 72 71 67 67 60 61 64 72 77 86 86 78 71 80 84 80 78 71 60 53 52 53 52 51 47 53 51 33 21 17 15 13 13 12 13
82 77 74 76 75 72 59 65 66 61 50 50 52 57 62 67 70 66 52 51 53 64 74 66 54 50 45 37 34 32 33 34 34 37 33 25 15 12 13 14 14 13 13 14
49 53 70 54 47 55 42 54 64 55 50 55 61 65 66 71 58 42 45 49 60 62 53 41 33 28 23 21 21 21 21 22 21 16 14 12 14 15 15 14 12 12 11 9
28 27 30 23 25 27 25 26 29 32 34 35 31 26 26 24 27 32 35 36 36 33 29 26 22 17 16 16 16 18 19 17 15 15 15 15 15 14 12 11 10 9 10 8

GFSNW_250_rhum_132.txt.gz
RH
37 34 40 48 58 50 45 40 40 38 34 34 33 26 24 26 31 31 24 23 31 46 46 43 42 43 44 43 39 36 37 41 43 35 36 39 39 39 44 47 37 31 38 43
39 36 30 38 48 64 57 50 43 41 46 41 36 35 30 26 28 24 25 27 29 27 26 30 32 36 34 34 35 35 35 37 39 44 44 43 43 46 42 33 30 39 49 51
47 41 37 34 33 40 63 72 60 54 43 46 45 43 40 43 42 45 35 29 26 27 28 28 33 35 33 34 40 41 37 39 41 41 40 42 36 32 35 37 42 54 71 76
42 57 56 47 41 32 38 50 72 76 68 60 58 57 49 51 53 49 48 52 45 38 32 34 35 36 42 40 35 38 38 36 37 39 42 44 55 54 54 51 50 39 54 61
32 31 36 64 54 45 38 34 52 62 82 95 86 79 72 68 63 54 61 65 48 48 56 46 39 37 36 36 36 42 43 50 43 42 51 65 54 38 37 49 50 47 34 27
44 54 30 41 33 58 56 40 32 46 66 83 86 83 94 96 77 78 70 61 73 91 70 41 40 45 42 37 34 34 37 35 50 57 55 42 41 48 48 54 54 61 70 76
59 65 54 48 39 35 60 73 53 38 32 42 57 92 96 91 94 90 74 84 78 69 68 78 71 60 43 38 36 40 52 52 63 70 71 79 61 42 56 68 71 78 68 53
83 64 68 82 72 32 29 43 87 72 46 40 32 39 66 82 99 100 95 70 72 82 88 68 59 69 69 55 50 45 39 41 40 38 37 37 35 35 49 61 80 94 85 71
85 99 79 66 75 59 35 33 32 53 75 69 48 50 36 48 56 88 100 100 100 88 64 98 100 100 100 93 95 94 94 90 90 82 76 91 83 69 57 55 45 41 39 56
100 100 100 89 88 85 55 45 39 36 37 34 66 66 52 43 45 44 54 76 69 98 94 76 81 83 77 75 80 60 54 59 72 76 92 93 97 100 100 100 100 100 98 96
61 100 100 100 79 89 96 60 56 49 45 47 47 50 52 55 76 76 68 77 82 90 92 100 99 100 100 100 99 98 89 72 60 54 53 43 38 51 52 99 100 100 100 100
52 62 97 100 100 99 86 98 99 86 81 68 70 69 69 65 76 99 100 100 100 74 93 97 86 84 63 59 72 90 100 88 98 92 74 72 61 68 65 66 54 39 40 46
54 49 75 98 100 100 100 100 90 90 100 97 99 98 99 100 100 100 100 99 92 98 100 100 93 86 98 99 71 100 100 97 76 62 87 87 68 61 99 82 98 100 100 100
75 49 54 74 99 100 100 100 100 100 97 96 100 96 95 99 95 85 96 100 100 86 72 88 90 89 95 100 100 100 100 100 99 100 99 96 84 85 100 100 100 98 100 100
95 68 67 54 78 100 100 100 100 100 100 100 100 100 100 100 100 100 100 100 100 100 100 100 100 100 98 100 100 100 91 95 99 100 100 100 100 100 100 100 100 100 100 88
100 100 78 55 51 84 100 100 100 100 100 100 100 100 100 100 100 100 100 100 100 100 100 100 100 100 100 100 100 100 100 100 100 100 100 100 91 79 92 88 84 88 90 93
100 100 100 80 74 75 99 100 100 100 100 100 100 100 100 100 100 100 100 100 97 100 100 100 100 100 100 100 100 100 98 88 88 97 94 88 98 99 93 96 98 97 84 68
100 100 100 100 100 90 100 98 100 100 100 100 100 100 100 100 100 100 100 100 93 96 97 100 100 91 88 83 90 99 86 93 91 89 92 90 82 82 76 73 77 82 78 65
100 100 100 100 100 100 100 100 100 100 100 100 100 100 100 100 100 100 100 100 100 100 100 100 98 100 100 100 100 100 99 99 95 92 91 85 88 88 93 97 83 76 68 60
100 100 100 88 96 100 100 100 100 100 100 100 100 100 100 100 100 100 100 100 100 100 100 100 100 100 100 100 100 100 100 100 100 100 97 98 97 88 86 90 84 71 61 58
100 99 100 99 100 99 97 98 100 100 100 100 100 100 100 100 100 100 100 100 100 100 100 100 100 100 100 100 100 100 100 100 100 100 100 100 93 87 80 76 68 62 64 59
96 88 86 80 74 78 91 100 100 100 100 100 100 100 100 100 98 96 90 100 97 99 100 100 100 100 100 100 100 95 85 76 74 76 79 85 80 72 67 68 56 46 42 38
98 81 71 68 62 57 72 81 94 100 98 100 100 100 100 100 100 100 96 95 97 90 77 88 93 89 94 94 84 83 84 74 76 80 61 57 57 54 47 38 36 37 40 35
99 99 75 70 64 70 67 69 75 81 76 87 85 80 93 83 79 92 99 75 73 74 66 70 72 75 76 79 77 72 67 62 55 55 48 39 40 34 30 30 30 32 29 21
32 41 52 62 61 56 60 58 51 50 62 70 67 66 65 61 69 71 55 57 68 71 61 58 58 61 60 59 55 51 47 47 44 34 31 30 29 28 26 25 24 21 14 13
21 24 26 30 30 29 31 33 37 39 52 50 50 50 50 47 50 63 75 74 62 45 35 40 41 43 43 43 40 34 28 25 23 22 22 23 23 21 19 17 16 15 14 13
23 24 25 23 20 19 23 23 23 26 32 34 35 34 35 45 44 36 29 28 26 26 27 27 25 28 30 30 26 18 16 16 16 16 16 15 15 14 14 14 12 12 12 11